This is the latest recevied weather packets stored in our database for station/object SV1JSO-13. If no packets are shown the sender has not sent any weather packets the latest 10 day(s).
| Time | Temp. | Humidity | Pressure | Rain* | Wind** | Luminosity | Snow |
|---|---|---|---|---|---|---|---|
| 1788162300 | 84° F | 48% | 757.6 mmHg | 0 in | - | 516 W/m² | - |
| 1788162000 | 84° F | 49% | 757.5 mmHg | 0 in | - | 500 W/m² | - |
| 1788161700 | 84° F | 47% | 757.6 mmHg | 0 in | - | 486 W/m² | - |
| 1788161400 | 83° F | 48% | 757.5 mmHg | 0 in | - | 476 W/m² | - |
| 1788161100 | 83° F | 47% | 757.4 mmHg | 0 in | - | 462 W/m² | - |
| 1788160800 | 83° F | 48% | 757.4 mmHg | 0 in | - | 449 W/m² | - |
| 1788160500 | 83° F | 49% | 757.4 mmHg | 0 in | - | 436 W/m² | - |
| 1788160200 | 83° F | 51% | 757.4 mmHg | 0 in | - | 421 W/m² | - |
| 1788159900 | 83° F | 51% | 757.4 mmHg | 0 in | - | 406 W/m² | - |
| 1788159600 | 83° F | 51% | 757.4 mmHg | 0 in | - | 387 W/m² | - |
| 1788159300 | 83° F | 51% | 757.4 mmHg | 0 in | - | 374 W/m² | - |
| 1788159000 | 82° F | 51% | 757.3 mmHg | 0 in | - | 358 W/m² | - |
| 1788158700 | 83° F | 49% | 757.3 mmHg | 0 in | - | 344 W/m² | - |
| 1788158400 | 82° F | 51% | 757.4 mmHg | 0 in | - | 330 W/m² | - |
| 1788158100 | 82° F | 53% | 757.3 mmHg | 0 in | - | 316 W/m² | - |
| 1788157800 | 82° F | 54% | 757.3 mmHg | 0 in | - | 301 W/m² | - |
| 1788157500 | 82° F | 54% | 757.4 mmHg | 0 in | - | 284 W/m² | - |
| 1788157200 | 82° F | 55% | 757.3 mmHg | 0 in | - | 273 W/m² | - |
| 1788156900 | 82° F | 55% | 757.4 mmHg | 0 in | - | 257 W/m² | - |
| 1788156600 | 82° F | 54% | 757.4 mmHg | 0 in | - | 243 W/m² | - |
| 1788156300 | 83° F | 53% | 757.4 mmHg | 0 in | - | 227 W/m² | - |
| 1788156000 | 83° F | 56% | 757.4 mmHg | 0 in | - | 215 W/m² | - |
| 1788155700 | 82° F | 59% | 757.4 mmHg | 0 in | - | 202 W/m² | - |
| 1788155400 | 81° F | 61% | 757.4 mmHg | 0 in | - | 187 W/m² | - |
| 1788155100 | 81° F | 60% | 757.4 mmHg | 0 in | - | 174 W/m² | - |
* Rain latest hour (hover to see other rain measurements)
** Current wind speed in m/s (hover to see current wind gust speed)